Temp
5 5 5 5 4 4 4 4 4 4 4 3 3 3 3 3 3 3 3 3 3 3 3 3 3 4 3 3 4 3 3 3 3 3 3 3 3 2 2 2 2 2
4 4 4 4 4 4 3 3 3 3 3 3 3 3 3 3 3 3 3 3 3 3 3 3 3 3 3 3 3 3 3 3 3 3 2 2 2 2 2 2 1 1
4 4 4 4 3 3 3 3 3 3 3 3 3 3 3 3 3 3 3 3 3 3 3 3 3 3 3 3 3 3 3 2 2 2 1 1 1 1 0 0 0 0
3 3 3 3 3 3 3 3 3 3 3 2 2 2 2 2 3 3 3 3 3 3 3 3 3 3 3 3 3 3 2 2 2 2 1 1 1 0 -0 -0 -1 -1
3 3 3 3 3 3 3 3 3 2 3 3 2 2 2 3 3 3 3 3 3 3 3 3 3 3 3 3 3 3 2 2 2 2 1 1 1 0 0 -0 -0 -1
3 2 3 3 3 3 3 3 3 3 3 3 3 3 3 3 3 3 3 2 3 3 2 3 3 2 2 2 2 2 2 2 1 1 1 1 1 0 -0 -0 -0 -1
3 2 3 3 3 3 3 3 3 2 3 3 3 2 2 2 2 2 2 2 2 2 2 2 2 2 1 1 1 1 1 0 0 0 -0 -0 -0 -0 -1 -1 -1 -1
3 3 3 3 3 3 3 3 2 2 2 2 2 2 2 2 2 1 1 1 1 1 1 1 1 0 0 0 -0 -0 -0 -1 -1 -1 -1 -1 -1 -1 -2 -2 -2 -3
3 3 3 2 2 2 2 2 2 2 2 2 1 1 1 1 1 1 1 0 0 0 0 -0 -0 -1 -1 -1 -1 -1 -2 -2 -2 -2 -2 -2 -3 -3 -3 -4 -4 -4
2 2 2 2 2 2 2 1 1 1 1 1 1 1 1 0 0 -0 -0 -0 -0 -1 -1 -1 -1 -2 -2 -2 -3 -3 -3 -3 -3 -4 -4 -4 -4 -5 -5 -6 -6 -6
2 2 2 2 1 1 1 1 1 1 1 0 0 0 -0 -0 -0 -1 -1 -1 -1 -1 -2 -2 -2 -3 -3 -3 -4 -4 -4 -5 -5 -5 -5 -6 -6 -7 -7 -7 -8 -8
2 1 1 1 1 0 0 0 0 0 0 -0 -0 -0 -1 -1 -1 -1 -1 -1 -1 -2 -2 -2 -3 -3 -3 -4 -4 -5 -5 -5 -6 -6 -7 -7 -7 -8 -8 -8 -9 -9
1 1 1 0 -0 -0 -0 -0 -0 -0 -1 -1 -1 -1 -1 -1 -1 -1 -1 -1 -2 -2 -2 -3 -3 -3 -4 -4 -5 -5 -5 -6 -7 -7 -8 -8 -8 -8 -8 -9 -9 -10
1 0 0 -0 -0 -0 -0 -1 -1 -1 -1 -1 -1 -2 -1 -1 -1 -1 -1 -2 -2 -2 -3 -3 -4 -4 -5 -5 -5 -5 -6 -7 -7 -8 -8 -8 -9 -9 -9 -9 -10 -10
0 -0 -0 -1 -1 -1 -1 -1 -1 -2 -2 -2 -2 -1 -1 -1 -1 -1 -1 -2 -2 -2 -3 -4 -4 -5 -5 -5 -6 -6 -7 -8 -8 -8 -9 -9 -10 -10 -10 -10 -10 -10
0 -0 -1 -1 -1 -1 -1 -1 -2 -2 -2 -2 -2 -1 -1 -1 -1 -1 -2 -2 -2 -3 -3 -4 -4 -5 -5 -6 -7 -7 -8 -9 -9 -10 -10 -11 -11 -11 -11 -11 -11 -11
0 -0 -1 -1 -1 -1 -2 -2 -2 -2 -2 -2 -2 -2 -2 -1 -1 -2 -2 -2 -2 -3 -3 -4 -5 -5 -6 -7 -7 -8 -8 -10 -11 -11 -11 -11 -11 -12 -12 -11 -12 -12
0 -0 -1 -1 -1 -2 -2 -2 -3 -3 -2 -2 -2 -2 -2 -2 -2 -2 -2 -2 -3 -3 -4 -4 -5 -6 -7 -7 -8 -8 -8 -10 -11 -11 -12 -12 -12 -12 -12 -12 -12 -13
0 -0 -1 -1 -2 -2 -3 -3 -3 -3 -3 -3 -2 -2 -2 -2 -2 -2 -2 -2 -3 -3 -4 -5 -6 -6 -7 -7 -8 -8 -8 -10 -12 -12 -12 -12 -12 -13 -13 -13 -13 -13
0 -1 -1 -1 -2 -3 -3 -3 -3 -3 -3 -3 -2 -2 -2 -2 -2 -2 -3 -3 -3 -4 -5 -5 -6 -7 -7 -8 -9 -8 -9 -11 -12 -12 -12 -13 -13 -13 -14 -14 -14 -14
-0 -1 -1 -2 -3 -3 -3 -3 -3 -3 -3 -3 -2 -2 -3 -3 -3 -3 -3 -4 -4 -5 -6 -6 -7 -7 -8 -9 -9 -9 -10 -12 -13 -13 -13 -14 -14 -14 -14 -14 -14 -14
-1 -1 -2 -2 -3 -3 -3 -3 -3 -3 -3 -3 -3 -3 -3 -3 -3 -3 -4 -4 -5 -6 -6 -7 -7 -8 -8 -9 -9 -9 -11 -13 -13 -14 -14 -14 -14 -15 -15 -15 -15 -14
-1 -2 -2 -3 -3 -3 -3 -3 -3 -3 -3 -3 -3 -3 -3 -3 -3 -4 -4 -5 -5 -6 -7 -7 -8 -9 -9 -9 -10 -10 -11 -13 -14 -14 -14 -14 -14 -15 -14 -14 -14 -14
-2 -2 -3 -3 -3 -3 -3 -3 -3 -3 -3 -3 -3 -4 -4 -4 -4 -4 -5 -6 -6 -7 -8 -8 -8 -9 -9 -10 -10 -10 -12 -14 -15 -14 -14 -14 -14 -14 -14 -14 -14 -14
-3 -3 -4 -4 -3 -3 -3 -3 -3 -3 -4 -4 -4 -4 -5 -5 -5 -5 -6 -7 -7 -8 -9 -9 -9 -9 -10 -10 -10 -10 -12 -14 -14 -14 -14 -14 -14 -14 -14 -14 -14 -14
-3 -4 -4 -4 -3 -3 -4 -4 -4 -4 -4 -5 -5 -5 -5 -6 -6 -6 -7 -7 -8 -8 -9 -9 -9 -9 -10 -10 -10 -11 -13 -14 -14 -14 -14 -14 -14 -14 -14 -13 -13 -13
Height
874 874 873 873 874 875 876 876 876 876 875 875 875 877 878 879 880 880 880 880 880 880 879 879 879 879 878 878 877 877 877 876 876 876 875 874 874 873 872 872 871 870
875 875 875 874 875 876 877 876 876 876 876 876 877 878 879 880 881 881 881 881 881 880 880 879 879 879 878 878 877 877 876 876 876 875 875 874 873 873 872 871 870 869
875 876 876 876 876 877 877 877 876 876 877 878 878 879 880 880 881 881 881 881 880 880 879 879 878 878 877 877 876 876 875 875 874 873 873 872 871 871 870 869 868 867
876 876 877 877 877 877 877 877 877 877 878 879 879 879 880 880 880 881 881 880 879 879 878 878 878 877 877 876 875 875 874 874 873 872 871 871 869 868 867 866 865 864
876 877 878 877 877 877 878 877 877 878 878 879 879 879 880 880 881 880 880 880 879 879 879 878 878 877 877 876 875 875 874 873 872 871 870 869 868 867 866 864 863 862
877 878 878 877 877 878 878 878 878 879 879 880 880 880 881 881 881 881 880 880 880 879 879 878 878 877 876 876 875 874 873 872 871 870 869 868 866 865 864 863 861 860
877 878 877 877 878 878 878 879 879 880 880 880 880 881 881 881 881 881 880 880 879 879 878 877 877 876 875 874 874 872 871 870 869 868 867 865 864 863 862 861 860 858
877 877 877 878 878 878 878 878 879 879 879 880 880 880 881 880 880 880 879 879 879 878 877 876 875 875 874 873 872 871 870 868 867 866 864 863 862 861 860 859 857 856
876 877 877 877 877 877 878 878 878 879 879 879 879 879 879 879 879 878 878 877 877 876 876 875 874 873 872 871 870 869 867 866 865 864 862 861 860 859 858 856 855 854
875 875 876 876 877 877 877 878 877 878 878 878 878 878 878 877 877 877 876 876 875 874 873 872 872 871 870 869 867 866 865 863 862 861 860 859 857 856 855 854 853 851
873 874 875 875 876 876 876 876 876 876 876 876 876 876 876 875 875 874 874 873 872 871 871 870 869 868 867 866 865 863 862 861 859 858 857 856 855 854 853 852 851 849
872 873 873 874 874 874 874 875 875 875 875 875 874 874 873 873 872 872 871 871 870 869 869 868 867 866 865 863 862 861 859 858 856 855 854 853 852 851 850 849 848 846
870 871 871 872 872 872 873 873 873 873 873 873 873 872 872 871 870 870 870 869 869 868 867 866 865 864 863 861 860 858 857 855 853 852 851 850 849 848 847 846 844 844
867 869 869 870 870 871 871 872 872 872 871 871 871 870 870 869 868 868 867 867 866 865 864 863 862 862 860 859 857 855 854 852 851 850 848 847 846 844 844 843 841 840
865 867 867 868 869 869 870 870 870 870 870 869 869 868 868 867 866 866 865 864 863 862 862 861 860 859 858 856 855 853 852 850 848 847 845 844 843 841 840 839 838 837
863 864 865 866 866 867 868 868 868 868 868 868 867 866 865 864 864 863 862 861 860 859 859 858 857 856 855 854 853 851 850 848 846 844 843 841 840 838 837 836 835 834
861 862 863 863 864 865 865 866 866 866 866 866 864 864 863 862 861 860 859 859 858 857 856 855 854 853 852 851 850 849 848 846 844 842 841 839 838 836 835 833 832 831
858 859 860 861 861 862 863 864 864 864 864 863 862 861 860 859 858 858 857 856 855 854 853 851 851 851 850 849 847 847 845 844 842 840 838 837 836 834 832 831 829 828
855 856 857 858 859 860 861 862 862 862 861 860 859 858 857 856 856 855 854 853 852 851 850 848 848 848 847 846 845 844 843 842 840 838 837 835 833 832 830 829 827 825
852 853 854 855 856 857 858 859 859 859 858 857 856 855 854 854 853 852 851 850 849 848 847 845 846 845 844 843 842 841 840 839 838 836 834 832 830 829 827 826 825 823
849 850 851 852 853 855 856 856 856 856 855 854 853 852 851 851 850 849 848 847 846 845 844 842 843 843 842 841 839 838 837 836 835 832 830 828 827 826 825 823 822 821
846 847 848 849 850 852 853 853 853 853 852 851 850 849 849 848 847 846 845 844 843 842 840 839 840 840 839 838 837 836 834 833 831 829 827 826 824 823 822 821 820 819
842 843 845 846 847 849 850 850 850 850 849 848 847 846 846 845 844 843 841 840 839 838 837 836 836 837 836 835 834 833 831 830 828 826 825 823 821 820 819 818 817 816
839 840 842 843 845 846 847 847 847 846 845 844 844 843 842 842 840 839 838 837 836 835 835 833 833 833 833 832 831 830 829 827 825 824 822 820 819 817 816 815 814 813
836 838 840 841 843 843 843 843 843 842 842 841 841 840 839 838 837 836 835 834 833 833 832 831 830 830 830 829 828 827 826 825 823 821 819 818 816 815 813 812 810 809
834 836 837 839 839 840 840 840 840 839 839 838 838 837 836 835 834 833 831 831 831 830 829 829 828 827 827 826 825 824 823 823 822 820 817 815 813 812 809 807 806 804
Wind_Speed
18 18 19 19 19 18 18 17 17 17 18 18 17 17 16 15 14 13 13 13 13 14 14 14 15 15 15 15 16 16 16 16 16 16 15 16 15 15 15 14 13 14
17 17 17 17 18 17 16 16 15 15 16 16 15 14 13 12 12 11 12 12 12 13 14 14 15 15 16 16 17 17 17 17 17 17 16 16 16 15 15 16 15 15
16 16 15 15 16 15 15 14 14 14 14 13 12 12 11 11 11 12 12 13 14 15 16 17 17 18 19 19 20 20 20 20 20 20 20 19 19 18 18 18 17 17
15 14 14 14 14 14 12 12 12 12 12 11 11 11 11 11 12 13 14 15 16 17 18 18 19 19 20 20 21 21 21 21 21 21 22 21 21 22 22 22 22 22
14 13 13 13 12 12 10 10 11 11 10 10 10 10 10 11 12 13 14 15 15 16 17 17 18 18 19 19 20 20 20 21 21 21 22 22 22 23 23 23 24 24
13 12 11 11 11 10 9 9 9 8 7 7 7 7 8 9 10 11 13 14 15 16 16 17 17 18 18 19 19 20 20 20 21 21 22 23 23 23 23 24 25 25
12 10 10 9 9 8 7 7 6 5 5 5 5 6 7 8 9 11 12 13 14 16 17 17 18 18 19 19 20 20 20 20 21 22 22 23 24 24 24 25 25 26
11 10 9 8 7 7 6 6 5 4 4 4 5 6 7 8 10 11 12 14 15 16 17 17 18 18 19 19 19 20 20 20 21 22 23 24 24 25 25 25 26 26
10 9 9 7 7 6 6 6 5 4 4 5 6 7 8 9 11 12 13 14 15 16 17 17 18 18 18 18 18 19 19 20 20 21 22 23 23 24 25 24 25 26
10 9 8 7 7 6 5 5 4 4 5 6 7 8 9 10 11 13 14 15 16 17 17 18 18 19 18 18 18 18 19 19 20 20 21 21 22 23 23 23 23 25
10 10 9 8 7 5 3 2 2 3 5 6 7 8 10 11 12 14 15 16 17 18 19 19 19 20 19 19 19 19 19 20 20 21 21 21 21 21 21 21 22 23
12 12 10 8 6 5 3 2 1 3 5 7 8 9 11 12 13 15 16 17 18 19 20 20 20 20 20 20 20 20 20 21 21 21 21 21 22 21 21 21 21 22
15 13 11 9 8 7 6 5 4 4 5 7 8 9 10 12 14 15 17 18 19 19 20 20 20 20 20 20 20 20 21 21 21 22 22 22 23 23 22 21 21 21
16 14 13 12 11 10 9 8 7 7 7 7 9 10 11 13 15 16 18 19 20 20 20 21 21 20 20 20 20 21 21 21 22 22 23 23 23 23 23 22 22 22
18 17 16 15 14 13 12 11 10 8 8 9 10 11 12 14 16 18 19 20 21 22 22 22 21 20 20 20 20 20 20 21 22 22 23 23 23 23 23 23 23 23
21 20 19 18 17 16 15 14 12 10 10 11 11 12 14 15 17 18 20 21 22 23 23 23 22 21 20 20 18 18 19 20 22 22 22 23 24 24 23 22 23 23
24 23 22 21 20 18 17 15 13 12 12 12 12 13 14 16 18 19 21 22 23 23 24 24 23 22 20 20 18 17 17 18 20 21 21 21 22 23 23 22 22 24
26 26 25 24 22 20 18 16 14 13 13 13 13 14 16 17 18 20 21 22 23 24 24 24 23 22 20 19 18 17 16 16 17 18 20 20 19 20 22 22 23 24
28 27 26 26 24 21 19 17 15 14 13 14 14 16 17 18 19 21 22 23 24 24 25 25 24 22 20 19 18 17 16 15 16 17 18 20 20 21 23 22 22 22
28 28 27 27 25 22 19 17 16 15 14 15 16 17 18 19 20 21 22 23 24 24 25 25 24 22 21 20 18 18 16 14 16 18 20 23 23 22 22 20 17 16
28 28 28 28 25 22 20 18 16 15 15 16 17 17 18 19 21 22 23 23 24 24 25 25 24 21 20 19 18 18 16 15 17 20 21 23 21 19 19 17 15 14
29 29 29 28 25 22 19 18 16 15 15 16 17 18 19 20 21 23 24 24 24 25 25 25 24 21 20 19 18 17 16 16 19 20 19 19 19 17 17 17 15 15
29 29 29 27 24 21 19 18 16 16 16 17 18 19 20 21 22 23 24 25 25 25 26 27 25 22 20 19 18 17 16 17 18 19 17 18 19 18 18 17 16 16
29 29 27 25 22 20 18 17 16 16 17 18 18 20 21 21 23 24 24 25 25 25 25 26 26 23 21 19 18 16 16 16 18 19 19 20 21 19 17 17 18 19
27 26 25 22 20 19 17 16 16 16 17 18 18 19 21 22 23 25 25 25 24 25 25 25 25 24 21 19 18 16 15 16 17 19 20 21 20 19 20 22 24 26
25 24 22 21 19 18 16 16 16 16 17 18 18 19 21 22 23 24 25 25 24 24 24 23 24 24 22 19 18 16 15 15 17 19 21 22 22 24 28 31 30 29
Wind_Direction
115 114 112 109 106 103 101 97 93 90 87 83 79 75 69 64 57 50 45 40 35 31 28 25 21 18 15 13 12 10 9 8 4 4 3 359 358 358 355 354 353 348
115 113 111 108 106 104 101 98 94 90 87 84 80 75 69 61 52 43 36 30 25 22 19 15 11 9 7 5 4 3 2 2 359 358 358 356 354 354 351 349 349 346
117 113 110 106 105 103 100 97 92 88 85 82 79 72 63 52 41 32 24 19 15 12 10 7 4 2 360 359 358 357 357 357 355 354 354 354 353 353 351 348 348 346
117 113 109 105 102 99 95 92 86 83 79 73 66 54 43 34 25 19 14 9 6 4 2 359 357 355 353 353 351 351 351 351 350 348 348 349 348 348 348 347 346 345
116 111 107 102 97 93 89 83 76 71 64 55 48 37 27 19 11 7 4 360 358 356 353 351 349 347 345 344 344 343 343 343 343 342 341 342 342 343 343 342 341 340
115 111 106 99 95 91 85 80 73 67 58 47 37 24 12 4 358 355 353 351 350 348 346 344 342 341 339 339 340 339 340 339 339 339 338 338 338 338 339 338 337 336
121 116 110 105 103 100 94 88 81 69 56 37 20 6 357 351 347 346 345 345 344 344 343 343 341 341 340 340 340 340 340 340 339 338 338 337 336 336 337 337 335 333
131 127 123 120 117 112 103 95 85 71 56 32 12 360 351 346 344 344 344 343 344 344 343 343 342 342 341 340 340 339 338 338 338 338 337 336 335 335 335 335 333 331
146 143 138 134 129 125 117 106 92 75 56 28 12 1 352 348 346 345 345 344 343 343 342 342 341 341 340 340 338 337 336 336 337 335 335 334 333 333 333 333 330 328
162 160 158 157 153 145 132 113 85 57 37 14 4 355 348 346 345 344 344 344 343 342 342 342 341 341 341 340 339 338 336 335 335 334 333 332 330 330 329 328 326 323
180 182 181 180 176 167 154 124 60 24 10 359 351 346 345 346 346 345 345 344 343 342 341 341 341 340 341 340 339 338 336 334 334 332 331 329 327 326 324 322 320 317
196 197 196 197 199 202 210 233 304 333 341 342 340 340 342 344 344 343 342 341 340 339 338 338 337 337 338 338 337 336 334 333 332 330 328 326 325 323 322 319 318 316
207 207 209 212 218 225 236 251 271 295 314 325 329 333 336 339 340 339 337 336 335 335 334 334 334 335 337 337 335 334 334 332 330 328 325 323 323 323 322 320 317 317
215 216 218 223 229 234 243 251 262 278 296 308 317 324 329 334 336 335 334 333 333 332 332 331 332 335 337 336 336 335 334 330 327 325 324 322 322 321 321 320 318 318
219 221 223 228 233 237 243 251 257 270 286 299 309 318 326 330 331 331 331 331 330 330 330 330 331 335 337 337 337 335 332 328 325 324 323 321 320 319 319 319 319 318
222 224 226 230 234 238 244 250 256 267 282 294 305 315 323 326 327 328 328 327 328 327 327 327 329 334 337 337 337 334 328 325 323 322 321 319 317 317 317 317 318 316
225 225 228 231 234 238 243 248 256 268 279 292 305 313 318 321 323 324 324 324 324 324 324 325 327 333 336 335 334 332 327 323 318 316 315 313 312 313 313 312 312 311
227 226 228 231 234 238 242 248 257 267 280 293 304 310 313 318 320 320 321 321 321 322 322 322 326 331 333 332 331 330 327 320 311 308 308 306 304 304 305 307 308 308
228 227 228 230 233 236 241 248 258 269 282 293 300 306 310 315 317 317 318 318 318 319 319 319 324 329 331 331 330 327 325 318 307 300 298 297 297 298 300 303 305 305
229 228 228 230 232 235 241 249 259 270 282 291 299 305 308 311 314 314 314 315 315 316 316 317 322 328 331 331 328 325 324 316 301 294 293 294 296 299 301 300 298 296
230 228 227 229 230 234 241 250 261 272 282 291 298 303 307 310 312 312 312 313 314 315 315 316 322 329 331 329 327 326 323 309 296 294 295 297 298 297 297 293 287 286
231 228 226 227 229 234 242 251 262 273 283 292 298 302 305 308 309 309 311 312 313 315 316 317 322 330 332 328 327 326 318 306 300 299 297 295 295 292 291 288 284 284
231 227 225 226 229 235 244 253 264 275 285 293 297 301 303 305 307 308 310 312 314 317 317 318 322 330 333 329 327 325 318 308 302 299 293 290 292 291 290 288 283 281
228 225 224 226 230 238 247 258 269 279 288 292 296 300 302 304 306 308 309 311 313 316 317 318 322 329 332 328 325 325 319 309 302 298 293 293 295 292 288 287 285 287
225 223 224 228 234 243 252 263 274 281 287 292 295 298 301 304 306 306 307 311 314 315 316 318 321 326 329 327 325 326 321 308 301 298 296 296 296 293 293 295 296 298
222 222 225 231 238 248 258 268 276 282 286 290 293 297 300 302 304 305 307 311 313 314 315 320 323 325 327 327 326 327 321 307 299 296 296 296 297 298 301 303 303 303